User: anonymous   Login
Location: Unspecified
(0.0000°N, 0.0000°E)
Time: 01:09:40
(UTC+00:00)
Language:

OBJECT E - Orbit

View from above orbital plane
View from above orbital plane
View from above satellite
View from above satellite

Ground track
Ground track

The orbit is defined by the following mean orbital elements,

1 61231U          26145.37157362 +.00000000 +00000-0 +66058-4 0 00007
2 61231  97.4121 217.9705 0001605  87.9850 272.1569 15.19184299    00
Epoch (UTC): 25 May 2026 08:55:03
Eccentricity: 0.0001605
inclination: 97.4121°
perigee height: 507 km
apogee height: 509 km
right ascension of ascending node: 217.9705°
argument of perigee: 87.9850°
revolutions per day: 15.19184299
mean anomaly at epoch: 272.1569°

The dashed part of the orbit path shows where the satellite is in the earth's shadow,  

DLR